Location: Aranbee
(34.0885°N, 118.2342°W)
Time: 04:47:50
(UTC+00:00)

Courier 1B - Pass Details

Date: 27 November 2020
Orbit: 962 x 1209 km, 28.3° (Epoch: 17 January)

Event Time Altitude Azimuth Distance (km) Brightness Sun altitude
Exits shadow 10:24:41 11° 122° (ESE) 3,028 10.3 -51.8°
Drops below altitude 10° 10:24:59 10° 121° (ESE) 3,121 10.4 -51.7°
Sets 10:27:58 0° 116° (ESE) 4,097 11.2 -51.1°
